This demonstration page uses our WeatherBlox Daily Observations layout. Learn more.

Left ArrowRight Arrow

39.12711, -84.51439

Hourly Observations for June 16, 2016

Temp ( °F °C ) Dew Point ( °F °C ) Humidity (%) Winds ( mph kmh ) Pressure ( in mb ) Visibility ( mi km ) Precip ( " mm )
12:53 am 00:53 Hazy 64 18 N/A N/A SW 6 9 29.82 1010 6 10 N/A
1:53 am 01:53 Clear 65 18.3 65 18.3 100 100 SSW 6 9 29.83 1010 10 16 N/A
2:53 am 02:53 Clear 65 18.3 65 18.3 100 100 S 5 7 29.82 1010 10 16 N/A
3:53 am 03:53 Clear 64 17.8 64 17.8 100 100 N N/A 29.81 1010 9 14 N/A
4:48 am 04:48 Clear with Mist and Fog 63 17 63 17 100 100 SW 3 6 29.83 1010 2 2 N/A
4:53 am 04:53 Clear with Fog 62 16.7 62 16.7 100 100 SW 3 6 29.81 1010 1 1 N/A
5:04 am 05:04 Clear with Mist and Fog 63 17 63 17 100 100 SW 5 7 29.83 1010 2 3 N/A
5:13 am 05:13 Clear with Mist and Fog 62 16.7 62 16.7 100 100 SSW 3 6 29.83 1010 1 1 N/A
5:29 am 05:29 Clear with Mist and Fog 62 16.7 62 16.7 100 100 SW 5 7 29.80 1009 2 3 N/A
5:36 am 05:36 Clear with Mist and Fog 63 17 63 17 100 100 SW 3 6 29.80 1009 5 8 N/A
5:53 am 05:53 Clear with Mist and Fog 61 16.1 61 16.1 100 100 SW 5 7 29.80 1009 3 4 N/A
6:07 am 06:07 Clear with Mist and Fog 63 17.2 63 17.2 100 100 SW 5 7 29.80 1009 6 10 N/A
6:53 am 06:53 Partly Cloudy with Mist and Fog 65 18.3 65 18.3 100 100 SSW 6 9 29.80 1009 6 10 N/A
7:53 am 07:53 Sunny with Mist and Fog 68 20 67 19.4 96 96 S 5 7 29.80 1009 10 16 N/A
8:53 am 08:53 Sunny 72 22.2 70 21.1 94 94 S 8 13 29.79 1009 10 16 N/A
9:53 am 09:53 Sunny 77 25 71 21.7 82 82 SSW 8 13 29.78 1008 10 16 N/A
10:53 am 10:53 Sunny 81 27.2 72 22.2 74 74 W 9 15 29.76 1008 10 16 N/A
11:53 am 11:53 Sunny 83 28.3 73 22.8 72 72 WSW 12 19 29.75 1007 10 16 N/A
12:53 pm 12:53 Partly Cloudy 84 28.9 72 22.2 67 67 W 15 24 29.75 1007 10 16 N/A
1:53 pm 13:53 Sunny 86 30 71 21.7 61 61 W 18 30 29.72 1007 10 16 N/A
2:40 pm 14:40 Partly Cloudy 88 31 68 20 52 52 W 20 31 29.71 1006 N/A N/A
2:53 pm 14:53 Partly Cloudy 87 30.6 67 19.4 51 51 W 21 33 29.72 1007 N/A N/A
3:53 pm 15:53 Partly Cloudy 87 30.6 64 17.8 46 46 NNW 17 28 29.72 1007 10 16 N/A
4:53 pm 16:53 Partly Cloudy 85 29.4 65 18.3 51 51 WNW 14 22 29.73 1007 10 16 N/A
5:53 pm 17:53 Partly Cloudy 84 28.9 65 18.3 53 53 WNW 10 17 29.73 1007 10 16 N/A
6:53 pm 18:53 Mostly Sunny 83 28.3 64 17.8 53 53 NNW 20 31 29.74 1007 10 16 N/A
7:53 pm 19:53 Partly Cloudy 81 27.2 64 17.8 57 57 NNW 12 19 29.76 1008 10 16 N/A
8:53 pm 20:53 Mostly Sunny 77 25 63 17.2 62 62 NNW 13 20 29.78 1009 10 16 N/A
9:53 pm 21:53 Partly Cloudy 74 23.3 62 16.7 67 67 NNW 20 31 29.81 1010 10 16 N/A
10:53 pm 22:53 Cloudy 73 22.8 62 16.7 69 69 N 15 24 29.82 1010 10 16 N/A
11:53 pm 23:53 Mostly Cloudy 71 21.7 62 16.7 73 73 NNW 13 20 29.83 1010 10 16 N/A

Powered by AerisWeather